Time,TemperatureF,DewpointF,PressureIn,WindDirection,WindDirectionDegrees,WindSpeedMPH,WindSpeedGustMPH,Humidity,HourlyPrecipIn,Conditions,Clouds,dailyrainin,SoftwareType,DateUTC
2013-01-27 00:03:00,58.3,32.1,30.18,ESE,112,0.0,0.0,37,0.00,CLR,,0.00,WeatherDisplay:10.37,2013-01-27 06:03:00,
2013-01-27 00:08:00,58.5,32.3,30.18,ESE,112,0.0,0.0,37,0.00,CLR,,0.00,WeatherDisplay:10.37,2013-01-27 06:08:00,
2013-01-27 00:13:00,58.3,32.1,30.18,ESE,112,0.0,0.0,37,0.00,CLR,,0.00,WeatherDisplay:10.37,2013-01-27 06:13:00,
2013-01-27 00:18:00,58.3,32.1,30.18,ENE,68,0.0,0.0,37,0.00,CLR,,0.00,WeatherDisplay:10.37,2013-01-27 06:18:00,
2013-01-27 00:23:00,58.1,31.9,30.18,ENE,68,0.0,0.0,37,0.00,CLR,,0.00,WeatherDisplay:10.37,2013-01-27 06:23:00,
2013-01-27 00:28:00,58.1,31.9,30.18,ENE,68,0.0,0.0,37,0.00,CLR,,0.00,WeatherDisplay:10.37,2013-01-27 06:28:00,
2013-01-27 00:33:00,57.7,30.9,30.18,ENE,68,0.0,0.0,36,0.00,CLR,,0.00,WeatherDisplay:10.37,2013-01-27 06:33:00,
2013-01-27 00:38:00,57.7,31.6,30.18,ENE,68,0.0,0.0,37,0.00,CLR,,0.00,WeatherDisplay:10.37,2013-01-27 06:38:00,
2013-01-27 00:43:00,57.7,31.6,30.15,NNE,22,0.0,0.0,37,0.00,CLR,,0.00,WeatherDisplay:10.37,2013-01-27 06:43:00,
2013-01-27 00:48:00,57.6,31.5,30.15,WNW,292,0.0,0.0,37,0.00,CLR,,0.00,WeatherDisplay:10.37,2013-01-27 06:48:00,
2013-01-27 00:53:00,57.4,31.3,30.15,NNE,22,0.0,0.0,37,0.00,CLR,,0.00,WeatherDisplay:10.37,2013-01-27 06:53:00,
2013-01-27 00:58:00,56.8,30.8,30.15,NNE,22,0.0,0.0,37,0.00,CLR,,0.00,WeatherDisplay:10.37,2013-01-27 06:58:00,
2013-01-27 01:03:00,56.7,30.7,30.15,NNE,22,0.0,0.0,37,0.00,CLR,,0.00,WeatherDisplay:10.37,2013-01-27 07:03:00,
2013-01-27 01:09:00,56.3,30.3,30.15,NNE,22,0.0,0.0,37,0.00,CLR,,0.00,WeatherDisplay:10.37,2013-01-27 07:09:00,
2013-01-27 01:14:00,56.1,30.2,30.15,NNE,22,0.0,0.0,37,0.00,CLR,,0.00,WeatherDisplay:10.37,2013-01-27 07:14:00,
2013-01-27 01:19:00,55.9,30.0,30.15,NNE,22,0.0,0.0,37,0.00,CLR,,0.00,WeatherDisplay:10.37,2013-01-27 07:19:00,
2013-01-27 01:24:00,55.8,29.9,30.15,NNE,22,0.0,0.0,37,0.00,CLR,,0.00,WeatherDisplay:10.37,2013-01-27 07:24:00,
2013-01-27 01:29:00,55.8,29.9,30.18,NNE,22,0.0,0.0,37,0.00,CLR,,0.00,WeatherDisplay:10.37,2013-01-27 07:29:00,
2013-01-27 01:34:00,55.9,30.7,30.18,NNE,22,0.0,0.0,38,0.00,CLR,,0.00,WeatherDisplay:10.37,2013-01-27 07:34:00,
2013-01-27 01:39:00,56.1,30.8,30.18,NNE,22,0.0,0.0,38,0.00,CLR,,0.00,WeatherDisplay:10.37,2013-01-27 07:39:00,
2013-01-27 01:44:00,56.3,31.0,30.18,NNE,22,0.0,0.0,38,0.00,CLR,,0.00,WeatherDisplay:10.37,2013-01-27 07:44:00,
2013-01-27 01:49:00,56.7,31.3,30.18,NNE,22,0.0,0.0,38,0.00,CLR,,0.00,WeatherDisplay:10.37,2013-01-27 07:49:00,
2013-01-27 01:54:00,56.5,31.2,30.18,NNE,22,0.0,0.0,38,0.00,CLR,,0.00,WeatherDisplay:10.37,2013-01-27 07:54:00,
2013-01-27 01:59:00,56.3,30.3,30.18,NNE,22,0.0,0.0,37,0.00,CLR,,0.00,WeatherDisplay:10.37,2013-01-27 07:59:00,
2013-01-27 02:04:00,56.1,30.2,30.18,NNE,22,0.0,0.0,37,0.00,CLR,,0.00,WeatherDisplay:10.37,2013-01-27 08:04:00,
2013-01-27 02:09:00,55.9,30.0,30.18,NNE,22,0.0,0.0,37,0.00,CLR,,0.00,WeatherDisplay:10.37,2013-01-27 08:09:00,
2013-01-27 02:14:00,55.9,30.0,30.18,NNE,22,0.0,0.0,37,0.00,CLR,,0.00,WeatherDisplay:10.37,2013-01-27 08:14:00,
2013-01-27 02:19:00,56.1,30.8,30.18,NNE,22,0.0,0.0,38,0.00,CLR,,0.00,WeatherDisplay:10.37,2013-01-27 08:19:00,
2013-01-27 02:24:00,56.3,31.0,30.18,NNE,22,0.0,0.0,38,0.00,CLR,,0.00,WeatherDisplay:10.37,2013-01-27 08:24:00,
2013-01-27 02:29:00,56.5,31.8,30.15,NNE,22,0.0,0.0,39,0.00,CLR,,0.00,WeatherDisplay:10.37,2013-01-27 08:29:00,
2013-01-27 02:34:00,57.2,33.1,30.15,NNE,22,0.0,0.0,40,0.00,CLR,,0.00,WeatherDisplay:10.37,2013-01-27 08:34:00,
2013-01-27 02:39:00,57.6,33.4,30.15,NNE,22,0.0,0.0,40,0.00,CLR,,0.00,WeatherDisplay:10.37,2013-01-27 08:39:00,
2013-01-27 02:44:00,57.7,32.9,30.15,NNE,22,0.0,0.0,39,0.00,CLR,,0.00,WeatherDisplay:10.37,2013-01-27 08:44:00,
2013-01-27 02:49:00,58.1,33.2,30.15,NNE,22,0.0,0.0,39,0.00,CLR,,0.00,WeatherDisplay:10.37,2013-01-27 08:49:00,
2013-01-27 02:54:00,58.3,33.4,30.15,NNE,22,0.0,0.0,39,0.00,CLR,,0.00,WeatherDisplay:10.37,2013-01-27 08:54:00,
2013-01-27 02:59:00,58.5,33.6,30.18,NNE,22,0.0,0.0,39,0.00,CLR,,0.00,WeatherDisplay:10.37,2013-01-27 08:59:00,
2013-01-27 03:04:00,58.6,33.7,30.18,NNE,22,0.0,0.0,39,0.00,CLR,,0.00,WeatherDisplay:10.37,2013-01-27 09:04:00,
2013-01-27 03:09:00,58.8,34.5,30.18,NNE,22,0.0,0.0,40,0.00,CLR,,0.00,WeatherDisplay:10.37,2013-01-27 09:09:00,
2013-01-27 03:14:00,59.0,34.7,30.15,NNE,22,0.0,0.0,40,0.00,CLR,,0.00,WeatherDisplay:10.37,2013-01-27 09:14:00,
2013-01-27 03:19:00,59.2,34.9,30.15,NNE,22,0.0,0.0,40,0.00,CLR,,0.00,WeatherDisplay:10.37,2013-01-27 09:19:00,
2013-01-27 03:24:00,59.4,35.6,30.15,NNE,22,0.0,0.0,41,0.00,CLR,,0.00,WeatherDisplay:10.37,2013-01-27 09:24:00,
2013-01-27 03:29:00,59.5,36.4,30.18,NNE,22,0.0,0.0,42,0.00,CLR,,0.00,WeatherDisplay:10.37,2013-01-27 09:29:00,
2013-01-27 03:34:00,59.7,37.2,30.18,NNE,22,0.0,0.0,43,0.00,CLR,,0.00,WeatherDisplay:10.37,2013-01-27 09:34:00,
2013-01-27 03:39:00,59.7,37.2,30.18,NNE,22,0.0,0.0,43,0.00,CLR,,0.00,WeatherDisplay:10.37,2013-01-27 09:39:00,
2013-01-27 03:44:00,60.1,38.1,30.15,NNE,22,0.0,0.0,44,0.00,CLR,,0.00,WeatherDisplay:10.37,2013-01-27 09:44:00,
2013-01-27 03:49:00,60.1,37.5,30.15,NNE,22,0.0,0.0,43,0.00,CLR,,0.00,WeatherDisplay:10.37,2013-01-27 09:49:00,
2013-01-27 03:54:00,60.1,37.5,30.15,NNE,22,0.0,0.0,43,0.00,CLR,,0.00,WeatherDisplay:10.37,2013-01-27 09:54:00,
2013-01-27 03:59:00,60.1,37.5,30.15,NNE,22,0.0,0.0,43,0.00,CLR,,0.00,WeatherDisplay:10.37,2013-01-27 09:59:00,
2013-01-27 04:04:00,60.3,37.1,30.15,NNE,22,0.0,0.0,42,0.00,CLR,,0.00,WeatherDisplay:10.37,2013-01-27 10:04:00,
2013-01-27 04:09:00,60.3,36.4,30.15,NNE,22,0.0,0.0,41,0.00,CLR,,0.00,WeatherDisplay:10.37,2013-01-27 10:09:00,
2013-01-27 04:14:00,60.4,36.6,30.15,NNE,22,0.0,0.0,41,0.00,CLR,,0.00,WeatherDisplay:10.37,2013-01-27 10:14:00,
2013-01-27 04:19:00,60.3,35.8,30.15,NNE,22,0.0,0.0,40,0.00,CLR,,0.00,WeatherDisplay:10.37,2013-01-27 10:19:00,
2013-01-27 04:24:00,60.3,35.8,30.15,NNE,22,0.0,0.0,40,0.00,CLR,,0.00,WeatherDisplay:10.37,2013-01-27 10:24:00,
2013-01-27 04:29:00,60.4,36.0,30.15,NNE,22,0.0,0.0,40,0.00,CLR,,0.00,WeatherDisplay:10.37,2013-01-27 10:29:00,
2013-01-27 04:34:00,60.4,36.0,30.15,NNE,22,0.0,0.0,40,0.00,CLR,,0.00,WeatherDisplay:10.37,2013-01-27 10:34:00,
2013-01-27 04:39:00,60.4,35.3,30.15,NNE,22,0.0,0.0,39,0.00,CLR,,0.00,WeatherDisplay:10.37,2013-01-27 10:39:00,
2013-01-27 04:44:00,60.4,35.3,30.15,NNE,22,0.0,0.0,39,0.00,CLR,,0.00,WeatherDisplay:10.37,2013-01-27 10:44:00,
2013-01-27 04:49:00,60.4,35.3,30.15,NNE,22,0.0,0.0,39,0.00,CLR,,0.00,WeatherDisplay:10.37,2013-01-27 10:49:00,
2013-01-27 04:54:00,60.4,34.7,30.15,NNE,22,0.0,0.0,38,0.00,CLR,,0.00,WeatherDisplay:10.37,2013-01-27 10:54:00,
2013-01-27 04:59:00,60.4,34.7,30.15,NNE,22,0.0,0.0,38,0.00,CLR,,0.00,WeatherDisplay:10.37,2013-01-27 10:59:00,
2013-01-27 05:04:00,60.3,34.5,30.15,NNE,22,0.0,0.0,38,0.00,CLR,,0.00,WeatherDisplay:10.37,2013-01-27 11:04:00,
2013-01-27 05:09:00,60.3,34.5,30.15,NNE,22,0.0,0.0,38,0.00,CLR,,0.00,WeatherDisplay:10.37,2013-01-27 11:09:00,
2013-01-27 05:14:00,60.3,34.5,30.18,NNE,22,0.0,0.0,38,0.00,CLR,,0.00,WeatherDisplay:10.37,2013-01-27 11:14:00,
2013-01-27 05:19:00,60.3,34.5,30.18,NNE,22,0.0,0.0,38,0.00,CLR,,0.00,WeatherDisplay:10.37,2013-01-27 11:19:00,
2013-01-27 05:24:00,60.3,34.5,30.18,NNE,22,0.0,0.0,38,0.00,CLR,,0.00,WeatherDisplay:10.37,2013-01-27 11:24:00,
2013-01-27 05:29:00,60.1,33.7,30.18,NNE,22,0.0,0.0,37,0.00,CLR,,0.00,WeatherDisplay:10.37,2013-01-27 11:29:00,
2013-01-27 05:34:00,60.1,33.7,30.18,NNE,22,0.0,0.0,37,0.00,CLR,,0.00,WeatherDisplay:10.37,2013-01-27 11:34:00,
2013-01-27 05:39:00,60.1,33.7,30.18,NNE,22,0.0,0.0,37,0.00,CLR,,0.00,WeatherDisplay:10.37,2013-01-27 11:39:00,
2013-01-27 05:44:00,60.1,33.7,30.18,NNE,22,0.0,0.0,37,0.00,CLR,,0.00,WeatherDisplay:10.37,2013-01-27 11:44:00,
2013-01-27 05:49:00,60.1,33.7,30.18,NNE,22,0.0,0.0,37,0.00,CLR,,0.00,WeatherDisplay:10.37,2013-01-27 11:49:00,
2013-01-27 05:54:00,60.1,33.7,30.18,NNE,22,0.0,0.0,37,0.00,CLR,,0.00,WeatherDisplay:10.37,2013-01-27 11:54:00,
2013-01-27 05:59:00,59.9,33.5,30.18,NNE,22,0.0,0.0,37,0.00,CLR,,0.00,WeatherDisplay:10.37,2013-01-27 11:59:00,
2013-01-27 06:04:00,59.9,33.5,30.18,NNE,22,0.0,0.0,37,0.00,CLR,,0.00,WeatherDisplay:10.37,2013-01-27 12:04:00,
2013-01-27 06:09:00,59.9,33.5,30.18,NNE,22,0.0,0.0,37,0.00,CLR,,0.00,WeatherDisplay:10.37,2013-01-27 12:09:00,
2013-01-27 06:14:00,59.9,33.5,30.18,NNE,22,0.0,0.0,37,0.00,CLR,,0.00,WeatherDisplay:10.37,2013-01-27 12:14:00,
2013-01-27 06:20:00,59.7,33.4,30.18,NNE,22,0.0,0.0,37,0.00,CLR,,0.00,WeatherDisplay:10.37,2013-01-27 12:20:00,
2013-01-27 06:25:00,59.7,34.0,30.18,NNE,22,0.0,0.0,38,0.00,CLR,,0.00,WeatherDisplay:10.37,2013-01-27 12:25:00,
2013-01-27 06:30:00,59.7,33.4,30.18,NNE,22,0.0,0.0,37,0.00,CLR,,0.00,WeatherDisplay:10.37,2013-01-27 12:30:00,
2013-01-27 06:35:00,59.7,33.4,30.18,NNE,22,0.0,0.0,37,0.00,CLR,,0.00,WeatherDisplay:10.37,2013-01-27 12:35:00,
2013-01-27 06:40:00,59.7,34.0,30.18,NNE,22,0.0,0.0,38,0.00,CLR,,0.00,WeatherDisplay:10.37,2013-01-27 12:40:00,
2013-01-27 06:45:00,59.5,33.9,30.21,NNE,22,0.0,0.0,38,0.00,CLR,,0.00,WeatherDisplay:10.37,2013-01-27 12:45:00,
2013-01-27 06:50:00,59.5,33.9,30.21,NNE,22,0.0,0.0,38,0.00,CLR,,0.00,WeatherDisplay:10.37,2013-01-27 12:50:00,
2013-01-27 06:55:00,59.5,33.9,30.21,NNE,22,0.0,0.0,38,0.00,CLR,,0.00,WeatherDisplay:10.37,2013-01-27 12:55:00,
2013-01-27 07:00:00,59.5,33.9,30.21,NNE,22,0.0,0.0,38,0.00,CLR,,0.00,WeatherDisplay:10.37,2013-01-27 13:00:00,
2013-01-27 07:05:00,59.7,34.0,30.21,NNE,22,0.0,0.0,38,0.00,CLR,,0.00,WeatherDisplay:10.37,2013-01-27 13:05:00,
2013-01-27 07:10:00,59.5,33.9,30.21,NNE,22,0.0,0.0,38,0.00,CLR,,0.00,WeatherDisplay:10.37,2013-01-27 13:10:00,
2013-01-27 07:15:00,59.5,33.9,30.21,NNE,22,0.0,0.0,38,0.00,CLR,,0.00,WeatherDisplay:10.37,2013-01-27 13:15:00,
2013-01-27 07:20:00,59.7,34.7,30.21,NNE,22,0.0,0.0,39,0.00,CLR,,0.00,WeatherDisplay:10.37,2013-01-27 13:20:00,
2013-01-27 07:25:00,59.7,34.7,30.21,NNE,22,0.0,0.0,39,0.00,CLR,,0.00,WeatherDisplay:10.37,2013-01-27 13:25:00,
2013-01-27 07:30:00,59.9,34.9,30.21,NNE,22,0.0,0.0,39,0.00,CLR,,0.00,WeatherDisplay:10.37,2013-01-27 13:30:00,
2013-01-27 07:35:00,60.3,35.2,30.21,NNE,22,0.0,0.0,39,0.00,CLR,,0.00,WeatherDisplay:10.37,2013-01-27 13:35:00,
2013-01-27 07:40:00,60.4,35.3,30.21,NNE,22,0.0,0.0,39,0.00,CLR,,0.00,WeatherDisplay:10.37,2013-01-27 13:40:00,
2013-01-27 07:45:00,61.2,36.0,30.21,NNE,22,0.0,0.0,39,0.00,CLR,,0.00,WeatherDisplay:10.37,2013-01-27 13:45:00,
2013-01-27 07:50:00,61.5,35.7,30.21,NNE,22,0.0,0.0,38,0.00,CLR,,0.00,WeatherDisplay:10.37,2013-01-27 13:50:00,
2013-01-27 07:55:00,61.9,36.0,30.21,NNE,22,0.0,0.0,38,0.00,CLR,,0.00,WeatherDisplay:10.37,2013-01-27 13:55:00,
2013-01-27 08:00:00,62.2,35.6,30.21,NNE,22,0.0,0.0,37,0.00,CLR,,0.00,WeatherDisplay:10.37,2013-01-27 14:00:00,
2013-01-27 08:05:00,63.1,35.7,30.21,NNE,22,0.0,0.0,36,0.00,CLR,,0.00,WeatherDisplay:10.37,2013-01-27 14:05:00,
2013-01-27 08:10:00,63.7,35.5,30.21,NNE,22,0.0,0.0,35,0.00,CLR,,0.00,WeatherDisplay:10.37,2013-01-27 14:10:00,
2013-01-27 08:15:00,64.4,34.6,30.21,NNE,22,0.0,0.0,33,0.00,CLR,,0.00,WeatherDisplay:10.37,2013-01-27 14:15:00,
2013-01-27 08:20:00,65.3,33.9,30.21,NNE,22,0.0,0.0,31,0.00,CLR,,0.00,WeatherDisplay:10.37,2013-01-27 14:20:00,
2013-01-27 08:25:00,65.8,32.7,30.21,East,90,0.0,2.2,29,0.00,CLR,,0.00,WeatherDisplay:10.37,2013-01-27 14:25:00,
2013-01-27 08:30:00,66.4,30.4,30.21,East,90,0.0,4.3,26,0.00,CLR,,0.00,WeatherDisplay:10.37,2013-01-27 14:30:00,
2013-01-27 08:35:00,66.7,29.8,30.21,SE,135,6.9,0.0,25,0.00,CLR,,0.00,WeatherDisplay:10.37,2013-01-27 14:35:00,
2013-01-27 08:40:00,67.1,29.1,30.21,ESE,112,0.0,2.9,24,0.00,CLR,,0.00,WeatherDisplay:10.37,2013-01-27 14:40:00,
2013-01-27 08:45:00,67.8,29.7,30.21,ESE,112,0.0,2.9,24,0.00,CLR,,0.00,WeatherDisplay:10.37,2013-01-27 14:45:00,
2013-01-27 08:50:00,68.5,29.2,30.21,ESE,112,0.0,2.9,23,0.00,CLR,,0.00,WeatherDisplay:10.37,2013-01-27 14:50:00,
2013-01-27 08:55:00,69.3,29.8,30.21,ESE,112,0.0,2.9,23,0.00,CLR,,0.00,WeatherDisplay:10.37,2013-01-27 14:55:00,
2013-01-27 09:00:00,69.3,28.8,30.21,ESE,112,0.0,2.9,22,0.00,CLR,,0.00,WeatherDisplay:10.37,2013-01-27 15:00:00,
2013-01-27 09:05:00,69.4,28.9,30.21,ESE,112,0.0,2.9,22,0.00,CLR,,0.00,WeatherDisplay:10.37,2013-01-27 15:05:00,
2013-01-27 09:10:00,69.6,29.1,30.21,ESE,112,0.0,2.9,22,0.00,CLR,,0.00,WeatherDisplay:10.37,2013-01-27 15:10:00,
2013-01-27 09:15:00,70.0,29.4,30.21,ESE,112,0.0,2.9,22,0.00,CLR,,0.00,WeatherDisplay:10.37,2013-01-27 15:15:00,
2013-01-27 09:20:00,70.2,29.5,30.21,ESE,112,0.0,2.9,22,0.00,CLR,,0.00,WeatherDisplay:10.37,2013-01-27 15:20:00,
2013-01-27 09:25:00,71.4,30.6,30.21,ESE,112,0.0,2.9,22,0.00,CLR,,0.00,WeatherDisplay:10.37,2013-01-27 15:25:00,
2013-01-27 09:30:00,72.0,27.4,30.21,ESE,112,0.0,2.9,19,0.00,CLR,,0.00,WeatherDisplay:10.37,2013-01-27 15:30:00,
2013-01-27 09:35:00,71.4,27.0,30.21,ESE,112,0.0,2.9,19,0.00,CLR,,0.00,WeatherDisplay:10.37,2013-01-27 15:35:00,
2013-01-27 09:40:00,71.4,27.0,30.21,ESE,112,0.0,2.9,19,0.00,CLR,,0.00,WeatherDisplay:10.37,2013-01-27 15:40:00,
2013-01-27 09:45:00,72.0,27.4,30.21,ESE,112,0.0,2.9,19,0.00,CLR,,0.00,WeatherDisplay:10.37,2013-01-27 15:45:00,
2013-01-27 09:50:00,71.4,27.0,30.21,ESE,112,0.0,2.9,19,0.00,CLR,,0.00,WeatherDisplay:10.37,2013-01-27 15:50:00,
2013-01-27 09:55:00,72.5,27.9,30.21,ESE,112,0.0,2.9,19,0.00,CLR,,0.00,WeatherDisplay:10.37,2013-01-27 15:55:00,
2013-01-27 10:00:00,74.1,27.9,30.24,ESE,112,0.0,2.9,18,0.00,CLR,,0.00,WeatherDisplay:10.37,2013-01-27 16:00:00,
2013-01-27 10:05:00,74.5,25.3,30.24,ESE,112,0.0,2.9,16,0.00,CLR,,0.00,WeatherDisplay:10.37,2013-01-27 16:05:00,
2013-01-27 10:10:00,74.7,25.5,30.24,ESE,112,0.0,2.9,16,0.00,CLR,,0.00,WeatherDisplay:10.37,2013-01-27 16:10:00,
2013-01-27 10:15:00,75.7,24.8,30.24,ESE,112,0.0,2.9,15,0.00,CLR,,0.00,WeatherDisplay:10.37,2013-01-27 16:15:00,
2013-01-27 10:20:00,75.0,25.7,30.24,ESE,112,0.0,2.9,16,0.00,CLR,,0.00,WeatherDisplay:10.37,2013-01-27 16:20:00,
2013-01-27 10:25:00,73.8,24.7,30.21,ESE,112,0.0,2.9,16,0.00,CLR,,0.00,WeatherDisplay:10.37,2013-01-27 16:25:00,
2013-01-27 10:30:00,73.2,24.3,30.21,ESE,112,0.0,2.9,16,0.00,CLR,,0.00,WeatherDisplay:10.37,2013-01-27 16:30:00,
2013-01-27 10:35:00,75.0,25.7,30.21,ESE,112,0.0,2.9,16,0.00,CLR,,0.00,WeatherDisplay:10.37,2013-01-27 16:35:00,
2013-01-27 10:40:00,76.5,25.3,30.21,ESE,112,0.0,2.9,15,0.00,CLR,,0.00,WeatherDisplay:10.37,2013-01-27 16:40:00,
2013-01-27 10:45:00,77.2,25.9,30.21,ESE,112,0.0,2.9,15,0.00,CLR,,0.00,WeatherDisplay:10.37,2013-01-27 16:45:00,
2013-01-27 10:50:00,77.5,26.2,30.21,ESE,112,0.0,2.9,15,0.00,CLR,,0.00,WeatherDisplay:10.37,2013-01-27 16:50:00,
2013-01-27 10:55:00,77.7,26.4,30.21,ESE,112,0.0,2.9,15,0.00,CLR,,0.00,WeatherDisplay:10.37,2013-01-27 16:55:00,
2013-01-27 11:00:00,77.9,26.5,30.21,ESE,112,0.0,2.9,15,0.00,CLR,,0.00,WeatherDisplay:10.37,2013-01-27 17:00:00,
2013-01-27 11:05:00,77.5,26.2,30.21,ESE,112,0.0,2.9,15,0.00,CLR,,0.00,WeatherDisplay:10.37,2013-01-27 17:05:00,
2013-01-27 11:10:00,77.0,25.8,30.21,ESE,112,0.0,2.9,15,0.00,CLR,,0.00,WeatherDisplay:10.37,2013-01-27 17:10:00,
2013-01-27 11:15:00,77.7,26.4,30.21,ESE,112,0.0,2.9,15,0.00,CLR,,0.00,WeatherDisplay:10.37,2013-01-27 17:15:00,
2013-01-27 11:21:00,78.1,26.6,30.21,ESE,112,0.0,2.9,15,0.00,CLR,,0.00,WeatherDisplay:10.37,2013-01-27 17:21:00,
2013-01-27 11:26:00,77.4,26.1,30.21,ESE,112,0.0,2.9,15,0.00,CLR,,0.00,WeatherDisplay:10.37,2013-01-27 17:26:00,
2013-01-27 11:31:00,75.4,24.5,30.21,ESE,112,0.0,2.9,15,0.00,CLR,,0.00,WeatherDisplay:10.37,2013-01-27 17:31:00,
2013-01-27 11:36:00,74.7,25.5,30.21,ESE,112,0.0,0.0,16,0.00,CLR,,0.00,WeatherDisplay:10.37,2013-01-27 17:36:00,
2013-01-27 11:41:00,74.7,25.5,30.18,ESE,112,0.0,0.0,16,0.00,CLR,,0.00,WeatherDisplay:10.37,2013-01-27 17:41:00,
2013-01-27 11:46:00,74.3,25.2,30.18,ESE,112,0.0,0.0,16,0.00,CLR,,0.00,WeatherDisplay:10.37,2013-01-27 17:46:00,
2013-01-27 11:51:00,73.6,24.6,30.18,ESE,112,0.0,0.0,16,0.00,CLR,,0.00,WeatherDisplay:10.37,2013-01-27 17:51:00,
2013-01-27 11:56:00,73.4,24.4,30.21,ESE,112,0.0,0.0,16,0.00,CLR,,0.00,WeatherDisplay:10.37,2013-01-27 17:56:00,
2013-01-27 12:01:00,74.3,25.2,30.21,ESE,112,0.0,0.0,16,0.00,CLR,,0.00,WeatherDisplay:10.37,2013-01-27 18:01:00,
2013-01-27 12:06:00,75.4,24.5,30.21,ESE,112,0.0,0.0,15,0.00,CLR,,0.00,WeatherDisplay:10.37,2013-01-27 18:06:00,
2013-01-27 12:11:00,76.6,25.5,30.21,ESE,112,0.0,0.0,15,0.00,CLR,,0.00,WeatherDisplay:10.37,2013-01-27 18:11:00,
2013-01-27 12:16:00,76.3,25.2,30.21,ESE,112,0.0,0.0,15,0.00,CLR,,0.00,WeatherDisplay:10.37,2013-01-27 18:16:00,
2013-01-27 12:22:00,76.5,25.3,30.21,ESE,112,0.0,0.0,15,0.00,CLR,,0.00,WeatherDisplay:10.37,2013-01-27 18:22:00,
2013-01-27 12:27:00,75.9,24.9,30.18,ESE,112,0.0,0.0,15,0.00,CLR,,0.00,WeatherDisplay:10.37,2013-01-27 18:27:00,
2013-01-27 12:32:00,75.0,25.7,30.18,ESE,112,0.0,0.0,16,0.00,CLR,,0.00,WeatherDisplay:10.37,2013-01-27 18:32:00,
2013-01-27 12:37:00,74.3,25.2,30.18,ESE,112,0.0,0.0,16,0.00,CLR,,0.00,WeatherDisplay:10.37,2013-01-27 18:37:00,
2013-01-27 12:42:00,74.3,25.2,30.18,ESE,112,0.0,0.0,16,0.00,CLR,,0.00,WeatherDisplay:10.37,2013-01-27 18:42:00,
2013-01-27 12:47:00,74.3,25.2,30.18,ESE,112,0.0,0.0,16,0.00,CLR,,0.00,WeatherDisplay:10.37,2013-01-27 18:47:00,
2013-01-27 12:52:00,73.9,24.9,30.18,ESE,112,0.0,0.0,16,0.00,CLR,,0.00,WeatherDisplay:10.37,2013-01-27 18:52:00,
2013-01-27 12:57:00,73.6,24.6,30.18,ESE,112,0.0,0.0,16,0.00,CLR,,0.00,WeatherDisplay:10.37,2013-01-27 18:57:00,
2013-01-27 13:02:00,73.2,24.3,30.18,ESE,112,0.0,0.0,16,0.00,CLR,,0.00,WeatherDisplay:10.37,2013-01-27 19:02:00,
2013-01-27 13:07:00,73.6,24.6,30.18,ESE,112,0.0,0.0,16,0.00,CLR,,0.00,WeatherDisplay:10.37,2013-01-27 19:07:00,
2013-01-27 13:12:00,73.9,24.9,30.15,ESE,112,0.0,0.0,16,0.00,CLR,,0.00,WeatherDisplay:10.37,2013-01-27 19:12:00,
2013-01-27 13:17:00,73.9,24.9,30.15,ESE,112,0.0,0.0,16,0.00,CLR,,0.00,WeatherDisplay:10.37,2013-01-27 19:17:00,
2013-01-27 13:22:00,74.3,25.2,30.15,ESE,112,0.0,0.0,16,0.00,CLR,,0.00,WeatherDisplay:10.37,2013-01-27 19:22:00,
2013-01-27 13:27:00,74.5,25.3,30.15,ESE,112,0.0,0.0,16,0.00,CLR,,0.00,WeatherDisplay:10.37,2013-01-27 19:27:00,
2013-01-27 13:32:00,74.1,25.0,30.15,ESE,112,0.0,0.0,16,0.00,CLR,,0.00,WeatherDisplay:10.37,2013-01-27 19:32:00,
2013-01-27 13:37:00,73.9,24.9,30.15,ESE,112,0.0,0.0,16,0.00,CLR,,0.00,WeatherDisplay:10.37,2013-01-27 19:37:00,
2013-01-27 13:42:00,73.9,24.9,30.15,ESE,112,0.0,0.0,16,0.00,CLR,,0.00,WeatherDisplay:10.37,2013-01-27 19:42:00,
2013-01-27 13:47:00,75.0,25.7,30.15,ESE,112,0.0,0.0,16,0.00,CLR,,0.00,WeatherDisplay:10.37,2013-01-27 19:47:00,
2013-01-27 13:52:00,75.2,24.3,30.15,ESE,112,0.0,0.0,15,0.00,CLR,,0.00,WeatherDisplay:10.37,2013-01-27 19:52:00,
2013-01-27 13:57:00,74.7,25.5,30.15,ESE,112,0.0,0.0,16,0.00,CLR,,0.00,WeatherDisplay:10.37,2013-01-27 19:57:00,
2013-01-27 14:02:00,75.6,24.6,30.15,ESE,112,0.0,0.0,15,0.00,CLR,,0.00,WeatherDisplay:10.37,2013-01-27 20:02:00,
2013-01-27 14:07:00,75.4,24.5,30.15,ESE,112,0.0,0.0,15,0.00,CLR,,0.00,WeatherDisplay:10.37,2013-01-27 20:07:00,
2013-01-27 14:12:00,75.0,25.7,30.15,ESE,112,0.0,0.0,16,0.00,CLR,,0.00,WeatherDisplay:10.37,2013-01-27 20:12:00,
2013-01-27 14:17:00,74.7,25.5,30.15,ESE,112,0.0,0.0,16,0.00,CLR,,0.00,WeatherDisplay:10.37,2013-01-27 20:17:00,
2013-01-27 14:22:00,76.6,25.5,30.15,ESE,112,0.0,0.0,15,0.00,CLR,,0.00,WeatherDisplay:10.37,2013-01-27 20:22:00,
2013-01-27 14:27:00,77.0,25.8,30.12,ESE,112,0.0,0.0,15,0.00,CLR,,0.00,WeatherDisplay:10.37,2013-01-27 20:27:00,
2013-01-27 14:32:00,76.8,25.6,30.12,ESE,112,0.0,0.0,15,0.00,CLR,,0.00,WeatherDisplay:10.37,2013-01-27 20:32:00,
2013-01-27 14:37:00,76.1,25.1,30.12,ESE,112,0.0,0.0,15,0.00,CLR,,0.00,WeatherDisplay:10.37,2013-01-27 20:37:00,
2013-01-27 14:42:00,75.4,24.5,30.12,ESE,112,0.0,0.0,15,0.00,CLR,,0.00,WeatherDisplay:10.37,2013-01-27 20:42:00,
2013-01-27 14:47:00,74.8,25.6,30.12,ESE,112,0.0,0.0,16,0.00,CLR,,0.00,WeatherDisplay:10.37,2013-01-27 20:47:00,
2013-01-27 14:52:00,75.4,24.5,30.12,ESE,112,0.0,0.0,15,0.00,CLR,,0.00,WeatherDisplay:10.37,2013-01-27 20:52:00,
2013-01-27 14:57:00,75.9,24.9,30.12,ESE,112,0.0,0.0,15,0.00,CLR,,0.00,WeatherDisplay:10.37,2013-01-27 20:57:00,
2013-01-27 15:02:00,76.5,25.3,30.12,East,90,8.1,8.1,15,0.00,CLR,,0.00,WeatherDisplay:10.37,2013-01-27 21:02:00,
2013-01-27 15:07:00,76.5,25.3,30.12,ESE,112,3.5,5.6,15,0.00,CLR,,0.00,WeatherDisplay:10.37,2013-01-27 21:07:00,
2013-01-27 15:12:00,75.7,24.8,30.12,ESE,112,3.5,5.6,15,0.00,CLR,,0.00,WeatherDisplay:10.37,2013-01-27 21:12:00,
2013-01-27 15:17:00,74.8,25.6,30.12,ESE,112,3.5,5.6,16,0.00,CLR,,0.00,WeatherDisplay:10.37,2013-01-27 21:17:00,
2013-01-27 15:22:00,74.1,25.0,30.12,ESE,112,3.5,5.6,16,0.00,CLR,,0.00,WeatherDisplay:10.37,2013-01-27 21:22:00,
2013-01-27 15:27:00,73.9,24.9,30.12,ESE,112,3.5,5.6,16,0.00,CLR,,0.00,WeatherDisplay:10.37,2013-01-27 21:27:00,
2013-01-27 15:32:00,73.6,24.6,30.12,ESE,112,3.5,5.6,16,0.00,CLR,,0.00,WeatherDisplay:10.37,2013-01-27 21:32:00,
2013-01-27 15:37:00,73.8,24.7,30.12,ESE,112,3.5,5.6,16,0.00,CLR,,0.00,WeatherDisplay:10.37,2013-01-27 21:37:00,
2013-01-27 15:42:00,73.8,24.7,30.12,NE,45,5.8,5.8,16,0.00,CLR,,0.00,WeatherDisplay:10.37,2013-01-27 21:42:00,
2013-01-27 15:47:00,75.2,24.3,30.12,NE,45,5.8,5.8,15,0.00,CLR,,0.00,WeatherDisplay:10.37,2013-01-27 21:47:00,
2013-01-27 15:52:00,75.7,24.8,30.12,NE,45,5.8,5.8,15,0.00,CLR,,0.00,WeatherDisplay:10.37,2013-01-27 21:52:00,
2013-01-27 15:57:00,75.0,25.7,30.12,NE,45,6.2,6.2,16,0.00,CLR,,0.00,WeatherDisplay:10.37,2013-01-27 21:57:00,
2013-01-27 16:02:00,73.9,24.9,30.12,NE,45,6.2,6.2,16,0.00,CLR,,0.00,WeatherDisplay:10.37,2013-01-27 22:02:00,
2013-01-27 16:07:00,73.8,24.7,30.12,NE,45,5.8,5.8,16,0.00,CLR,,0.00,WeatherDisplay:10.37,2013-01-27 22:07:00,
2013-01-27 16:12:00,72.9,24.0,30.09,West,270,4.6,5.9,16,0.00,CLR,,0.00,WeatherDisplay:10.37,2013-01-27 22:12:00,
2013-01-27 16:17:00,72.7,23.9,30.09,East,90,5.8,5.8,16,0.00,CLR,,0.00,WeatherDisplay:10.37,2013-01-27 22:17:00,
2013-01-27 16:22:00,72.1,23.4,30.09,South,180,5.8,5.8,16,0.00,CLR,,0.00,WeatherDisplay:10.37,2013-01-27 22:22:00,
2013-01-27 16:27:00,72.0,23.3,30.12,East,90,2.4,0.0,16,0.00,CLR,,0.00,WeatherDisplay:10.37,2013-01-27 22:27:00,
2013-01-27 16:32:00,72.0,23.3,30.12,East,90,2.3,6.9,16,0.00,CLR,,0.00,WeatherDisplay:10.37,2013-01-27 22:32:00,
2013-01-27 16:37:00,71.8,23.1,30.12,East,90,5.8,6.9,16,0.00,CLR,,0.00,WeatherDisplay:10.37,2013-01-27 22:37:00,
2013-01-27 16:42:00,71.8,23.1,30.12,ESE,112,5.8,5.8,16,0.00,CLR,,0.00,WeatherDisplay:10.37,2013-01-27 22:42:00,
2013-01-27 16:47:00,71.8,23.1,30.12,ESE,112,5.8,5.8,16,0.00,CLR,,0.00,WeatherDisplay:10.37,2013-01-27 22:47:00,
2013-01-27 16:52:00,71.6,23.0,30.12,ESE,112,5.8,5.8,16,0.00,CLR,,0.00,WeatherDisplay:10.37,2013-01-27 22:52:00,
2013-01-27 16:57:00,71.6,23.0,30.09,SSW,202,5.8,5.8,16,0.00,CLR,,0.00,WeatherDisplay:10.37,2013-01-27 22:57:00,
2013-01-27 17:02:00,71.4,27.0,30.09,East,90,9.2,9.2,19,0.00,CLR,,0.00,WeatherDisplay:10.37,2013-01-27 23:02:00,
2013-01-27 17:07:00,71.6,27.1,30.09,SE,135,5.8,5.8,19,0.00,CLR,,0.00,WeatherDisplay:10.37,2013-01-27 23:07:00,
2013-01-27 17:12:00,71.4,27.0,30.09,ESE,112,4.9,7.1,19,0.00,CLR,,0.00,WeatherDisplay:10.37,2013-01-27 23:12:00,
2013-01-27 17:17:00,71.2,26.8,30.09,ESE,112,4.6,7.1,19,0.00,CLR,,0.00,WeatherDisplay:10.37,2013-01-27 23:17:00,
2013-01-27 17:23:00,71.1,26.7,30.09,SSE,158,9.2,9.2,19,0.00,CLR,,0.00,WeatherDisplay:10.37,2013-01-27 23:23:00,
2013-01-27 17:28:00,70.9,26.5,30.12,SE,135,2.4,3.8,19,0.00,CLR,,0.00,WeatherDisplay:10.37,2013-01-27 23:28:00,
2013-01-27 17:33:00,70.7,26.4,30.12,SE,135,6.9,6.9,19,0.00,CLR,,0.00,WeatherDisplay:10.37,2013-01-27 23:33:00,
2013-01-27 17:38:00,70.5,26.2,30.12,SSE,158,5.8,5.8,19,0.00,CLR,,0.00,WeatherDisplay:10.37,2013-01-27 23:38:00,
2013-01-27 17:43:00,70.3,26.1,30.12,ESE,112,8.1,8.1,19,0.00,CLR,,0.00,WeatherDisplay:10.37,2013-01-27 23:43:00,
2013-01-27 17:48:00,70.2,25.9,30.12,ESE,112,6.2,6.4,19,0.00,CLR,,0.00,WeatherDisplay:10.37,2013-01-27 23:48:00,
2013-01-27 17:53:00,70.2,29.5,30.12,ESE,112,6.2,6.4,22,0.00,CLR,,0.00,WeatherDisplay:10.37,2013-01-27 23:53:00,
2013-01-27 17:58:00,70.2,29.5,30.12,ESE,112,6.2,6.4,22,0.00,CLR,,0.00,WeatherDisplay:10.37,2013-01-27 23:58:00,
2013-01-27 18:03:00,70.2,29.5,30.12,ESE,112,6.2,6.4,22,0.00,CLR,,0.00,WeatherDisplay:10.37,2013-01-28 00:03:00,
2013-01-27 18:08:00,70.0,29.4,30.12,ESE,112,6.2,6.4,22,0.00,CLR,,0.00,WeatherDisplay:10.37,2013-01-28 00:08:00,
2013-01-27 18:13:00,70.0,29.4,30.12,ESE,112,4.6,4.6,22,0.00,CLR,,0.00,WeatherDisplay:10.37,2013-01-28 00:13:00,
2013-01-27 18:18:00,69.8,29.2,30.12,ESE,112,1.4,4.9,22,0.00,CLR,,0.00,WeatherDisplay:10.37,2013-01-28 00:18:00,
2013-01-27 18:23:00,69.8,29.2,30.12,ESE,112,1.4,4.9,22,0.00,CLR,,0.00,WeatherDisplay:10.37,2013-01-28 00:23:00,
2013-01-27 18:28:00,69.8,29.2,30.12,East,90,4.6,4.7,22,0.00,CLR,,0.00,WeatherDisplay:10.37,2013-01-28 00:28:00,
2013-01-27 18:33:00,69.8,29.2,30.12,ESE,112,5.8,5.8,22,0.00,CLR,,0.00,WeatherDisplay:10.37,2013-01-28 00:33:00,
2013-01-27 18:38:00,69.6,29.1,30.12,ESE,112,5.8,5.8,22,0.00,CLR,,0.00,WeatherDisplay:10.37,2013-01-28 00:38:00,
2013-01-27 18:43:00,69.3,28.8,30.12,SSE,158,4.6,0.0,22,0.00,CLR,,0.00,WeatherDisplay:10.37,2013-01-28 00:43:00,
2013-01-27 18:48:00,69.1,28.6,30.12,SSE,158,4.6,0.0,22,0.00,CLR,,0.00,WeatherDisplay:10.37,2013-01-28 00:48:00,
2013-01-27 18:53:00,68.9,29.5,30.12,SSE,158,4.6,0.0,23,0.00,CLR,,0.00,WeatherDisplay:10.37,2013-01-28 00:53:00,
2013-01-27 18:58:00,68.7,29.4,30.12,SSE,158,4.6,0.0,23,0.00,CLR,,0.00,WeatherDisplay:10.37,2013-01-28 00:58:00,
2013-01-27 19:03:00,68.7,29.4,30.12,ESE,112,9.2,9.2,23,0.00,CLR,,0.00,WeatherDisplay:10.37,2013-01-28 01:03:00,
2013-01-27 19:08:00,68.7,29.4,30.12,ESE,112,9.2,9.2,23,0.00,CLR,,0.00,WeatherDisplay:10.37,2013-01-28 01:08:00,
2013-01-27 19:13:00,68.5,29.2,30.12,ESE,112,9.2,9.2,23,0.00,CLR,,0.00,WeatherDisplay:10.37,2013-01-28 01:13:00,
2013-01-27 19:18:00,68.5,29.2,30.12,SE,135,2.3,3.8,23,0.00,CLR,,0.00,WeatherDisplay:10.37,2013-01-28 01:18:00,
2013-01-27 19:23:00,68.5,29.2,30.12,SE,135,2.3,3.8,23,0.00,CLR,,0.00,WeatherDisplay:10.37,2013-01-28 01:23:00,
2013-01-27 19:28:00,68.5,29.2,30.12,SE,135,2.9,3.8,23,0.00,CLR,,0.00,WeatherDisplay:10.37,2013-01-28 01:28:00,
2013-01-27 19:33:00,68.5,29.2,30.12,SE,135,2.9,3.8,23,0.00,CLR,,0.00,WeatherDisplay:10.37,2013-01-28 01:33:00,
2013-01-27 19:38:00,68.4,29.1,30.12,SE,135,2.3,3.8,23,0.00,CLR,,0.00,WeatherDisplay:10.37,2013-01-28 01:38:00,
2013-01-27 19:43:00,68.4,29.1,30.15,SE,135,2.3,3.8,23,0.00,CLR,,0.00,WeatherDisplay:10.37,2013-01-28 01:43:00,
2013-01-27 19:48:00,68.4,29.1,30.15,SE,135,2.3,3.8,23,0.00,CLR,,0.00,WeatherDisplay:10.37,2013-01-28 01:48:00,
2013-01-27 19:53:00,68.2,30.0,30.15,SE,135,2.9,3.8,24,0.00,CLR,,0.00,WeatherDisplay:10.37,2013-01-28 01:53:00,
2013-01-27 19:58:00,68.2,30.0,30.15,SE,135,2.9,3.8,24,0.00,CLR,,0.00,WeatherDisplay:10.37,2013-01-28 01:58:00,
2013-01-27 20:03:00,68.0,29.8,30.15,SE,135,2.3,3.8,24,0.00,CLR,,0.00,WeatherDisplay:10.37,2013-01-28 02:03:00,
2013-01-27 20:08:00,67.8,30.7,30.15,SE,135,2.9,3.8,25,0.00,CLR,,0.00,WeatherDisplay:10.37,2013-01-28 02:08:00,
2013-01-27 20:13:00,67.8,30.7,30.15,SE,135,2.9,3.8,25,0.00,CLR,,0.00,WeatherDisplay:10.37,2013-01-28 02:13:00,
2013-01-27 20:18:00,67.8,30.7,30.15,SE,135,2.3,3.8,25,0.00,CLR,,0.00,WeatherDisplay:10.37,2013-01-28 02:18:00,
2013-01-27 20:23:00,67.6,31.5,30.15,SE,135,2.3,3.8,26,0.00,CLR,,0.00,WeatherDisplay:10.37,2013-01-28 02:23:00,
2013-01-27 20:28:00,67.3,31.2,30.12,SE,135,2.9,3.8,26,0.00,CLR,,0.00,WeatherDisplay:10.37,2013-01-28 02:28:00,
2013-01-27 20:33:00,67.1,32.0,30.12,SE,135,2.9,3.8,27,0.00,CLR,,0.00,WeatherDisplay:10.37,2013-01-28 02:33:00,
2013-01-27 20:38:00,67.1,32.0,30.12,SE,135,2.3,3.8,27,0.00,CLR,,0.00,WeatherDisplay:10.37,2013-01-28 02:38:00,
2013-01-27 20:43:00,67.1,32.9,30.12,SE,135,2.9,3.8,28,0.00,CLR,,0.00,WeatherDisplay:10.37,2013-01-28 02:43:00,
2013-01-27 20:48:00,67.1,32.9,30.12,SE,135,2.9,3.8,28,0.00,CLR,,0.00,WeatherDisplay:10.37,2013-01-28 02:48:00,
2013-01-27 20:53:00,67.3,33.9,30.12,SE,135,2.3,3.8,29,0.00,CLR,,0.00,WeatherDisplay:10.37,2013-01-28 02:53:00,
2013-01-27 20:58:00,67.3,33.9,30.15,SE,135,2.3,3.8,29,0.00,CLR,,0.00,WeatherDisplay:10.37,2013-01-28 02:58:00,
2013-01-27 21:03:00,67.3,33.9,30.15,SE,135,2.9,3.8,29,0.00,CLR,,0.00,WeatherDisplay:10.37,2013-01-28 03:03:00,
2013-01-27 21:08:00,67.6,33.3,30.15,SE,135,2.9,3.8,28,0.00,CLR,,0.00,WeatherDisplay:10.37,2013-01-28 03:08:00,
2013-01-27 21:13:00,67.8,33.5,30.15,SE,135,2.3,3.8,28,0.00,CLR,,0.00,WeatherDisplay:10.37,2013-01-28 03:13:00,
2013-01-27 21:18:00,67.8,33.5,30.15,SE,135,2.3,3.8,28,0.00,CLR,,0.00,WeatherDisplay:10.37,2013-01-28 03:18:00,
2013-01-27 21:23:00,67.8,32.6,30.15,SE,135,2.9,3.8,27,0.00,CLR,,0.00,WeatherDisplay:10.37,2013-01-28 03:23:00,
2013-01-27 21:28:00,67.8,32.6,30.15,SE,135,2.9,3.8,27,0.00,CLR,,0.00,WeatherDisplay:10.37,2013-01-28 03:28:00,
2013-01-27 21:33:00,67.6,32.4,30.15,SE,135,2.3,3.8,27,0.00,CLR,,0.00,WeatherDisplay:10.37,2013-01-28 03:33:00,
2013-01-27 21:38:00,67.6,32.4,30.15,SE,135,2.3,3.8,27,0.00,CLR,,0.00,WeatherDisplay:10.37,2013-01-28 03:38:00,
2013-01-27 21:43:00,67.6,33.3,30.15,SE,135,2.3,3.8,28,0.00,CLR,,0.00,WeatherDisplay:10.37,2013-01-28 03:43:00,
2013-01-27 21:48:00,67.3,33.0,30.15,SE,135,2.9,3.8,28,0.00,CLR,,0.00,WeatherDisplay:10.37,2013-01-28 03:48:00,
2013-01-27 21:53:00,67.5,33.2,30.15,SE,135,2.3,3.8,28,0.00,CLR,,0.00,WeatherDisplay:10.37,2013-01-28 03:53:00,
2013-01-27 21:58:00,67.3,33.9,30.15,SE,135,2.9,3.8,29,0.00,CLR,,0.00,WeatherDisplay:10.37,2013-01-28 03:58:00,
2013-01-27 22:03:00,67.1,33.8,30.15,SSE,158,2.3,2.3,29,0.00,CLR,,0.00,WeatherDisplay:10.37,2013-01-28 04:03:00,
2013-01-27 22:08:00,66.9,33.6,30.15,SE,135,5.8,5.8,29,0.00,CLR,,0.00,WeatherDisplay:10.37,2013-01-28 04:08:00,
2013-01-27 22:13:00,66.7,34.3,30.15,SE,135,5.8,5.8,30,0.00,CLR,,0.00,WeatherDisplay:10.37,2013-01-28 04:13:00,
2013-01-27 22:18:00,66.7,35.1,30.15,SE,135,5.8,5.8,31,0.00,CLR,,0.00,WeatherDisplay:10.37,2013-01-28 04:18:00,
2013-01-27 22:23:00,66.7,35.1,30.15,SE,135,5.8,5.8,31,0.00,CLR,,0.00,WeatherDisplay:10.37,2013-01-28 04:23:00,
2013-01-27 22:28:00,66.7,35.9,30.15,SE,135,5.8,5.8,32,0.00,CLR,,0.00,WeatherDisplay:10.37,2013-01-28 04:28:00,
2013-01-27 22:33:00,66.9,36.1,30.15,SE,135,5.8,5.8,32,0.00,CLR,,0.00,WeatherDisplay:10.37,2013-01-28 04:33:00,
2013-01-27 22:39:00,66.9,36.1,30.15,SE,135,5.8,5.8,32,0.00,CLR,,0.00,WeatherDisplay:10.37,2013-01-28 04:39:00,
2013-01-27 22:44:00,66.9,36.1,30.15,SE,135,5.8,5.8,32,0.00,CLR,,0.00,WeatherDisplay:10.37,2013-01-28 04:44:00,
2013-01-27 22:49:00,66.9,36.1,30.15,SE,135,5.8,5.8,32,0.00,CLR,,0.00,WeatherDisplay:10.37,2013-01-28 04:49:00,
2013-01-27 22:54:00,66.9,36.1,30.15,SE,135,5.8,5.8,32,0.00,CLR,,0.00,WeatherDisplay:10.37,2013-01-28 04:54:00,
2013-01-27 22:59:00,66.9,36.1,30.15,SE,135,5.8,5.8,32,0.00,CLR,,0.00,WeatherDisplay:10.37,2013-01-28 04:59:00,
2013-01-27 23:01:00,66.9,36.1,30.15,SE,135,5.8,5.8,32,0.00,CLR,,0.00,WeatherDisplay:10.37,2013-01-28 05:01:00,
2013-01-27 23:02:00,66.7,35.9,30.15,SE,135,5.8,5.8,32,0.00,CLR,,0.00,WeatherDisplay:10.37,2013-01-28 05:02:00,
2013-01-27 23:03:00,66.7,35.9,30.15,SE,135,5.8,5.8,32,0.00,CLR,,0.00,WeatherDisplay:10.37,2013-01-28 05:03:00,
2013-01-27 23:04:00,66.7,35.9,30.15,SE,135,5.8,5.8,32,0.00,CLR,,0.00,WeatherDisplay:10.37,2013-01-28 05:04:00,
2013-01-27 23:09:00,66.7,35.9,30.15,SE,135,5.8,5.8,32,0.00,CLR,,0.00,WeatherDisplay:10.37,2013-01-28 05:09:00,
2013-01-27 23:14:00,66.9,36.1,30.15,SE,135,5.8,5.8,32,0.00,CLR,,0.00,WeatherDisplay:10.37,2013-01-28 05:14:00,
2013-01-27 23:20:00,66.9,36.1,30.15,SE,135,5.8,5.8,32,0.00,CLR,,0.00,WeatherDisplay:10.37,2013-01-28 05:20:00,
2013-01-27 23:25:00,66.9,36.1,30.15,SE,135,5.8,5.8,32,0.00,CLR,,0.00,WeatherDisplay:10.37,2013-01-28 05:25:00,
2013-01-27 23:30:00,66.9,36.1,30.12,ESE,112,2.3,3.3,32,0.00,CLR,,0.00,WeatherDisplay:10.37,2013-01-28 05:30:00,
2013-01-27 23:35:00,67.1,36.2,30.12,ESE,112,2.3,3.3,32,0.00,CLR,,0.00,WeatherDisplay:10.37,2013-01-28 05:35:00,
2013-01-27 23:40:00,67.1,36.2,30.12,ESE,112,2.3,3.3,32,0.00,CLR,,0.00,WeatherDisplay:10.37,2013-01-28 05:40:00,
2013-01-27 23:45:00,67.1,37.0,30.12,ESE,112,2.3,3.3,33,0.00,CLR,,0.00,WeatherDisplay:10.37,2013-01-28 05:45:00,
2013-01-27 23:50:00,67.1,37.0,30.12,ESE,112,2.3,3.3,33,0.00,CLR,,0.00,WeatherDisplay:10.37,2013-01-28 05:50:00,
2013-01-27 23:55:00,67.3,37.2,30.12,ESE,112,2.3,3.3,33,0.00,CLR,,0.00,WeatherDisplay:10.37,2013-01-28 05:55:00,